Regional Weather Roundup
Issued by NWS Cleveland, OH

Home | Current Version | Previous Version | Text Only | Print | Product List | Glossary Off
Versions: 1 2 3 4 5 6 7 8 9 10 11 12 13 14 15 16 17 18 19 20 21 22 23 24 25 26 27 28 29 30 31 32 33 34 35 36 37 38 39 40 41 42 43 44 45 46 47 48 49 50

000
ASUS41 KCLE 010700
RWRCLE
OHIO REGIONAL WEATHER ROUNDUP
NATIONAL WEATHER SERVICE WILMINGTON, OH
300 AM EDT WED OCT 01 2014

NOTE: "FAIR" INDICATES FEW OR NO CLOUDS BELOW 12,000 FEET WITH NO
SIGNIFICANT WEATHER AND/OR OBSTRUCTIONS TO VISIBILITY.

OHZ001>008-015>018-024>027-034-035-043-044-010800-
   NORTHWEST OHIO

CITY           SKY/WX    TMP DP  RH WIND       PRES   REMARKS
DEFIANCE       CLOUDY    52  48  86 NE5       30.04F
FINDLAY        CLOUDY    54  50  86 N6        30.01F
TOLEDO EXPRESS CLOUDY    49  47  93 CALM      30.03S
TOLEDO METCALF CLOUDY    51  48  89 CALM      30.04S
LIMA           CLOUDY    52  49  89 N3        30.02S
$$

OHZ009>014-019>023-028>033-038-089-010800-
   NORTHEAST OHIO

CITY           SKY/WX    TMP DP  RH WIND       PRES   REMARKS
CLE-HOPKINS    PTCLDY    54  51  90 CALM      30.02S
CLE-LAKEFRONT  CLOUDY    60  54  80 NE8       30.00R
CUY CO. ARPT   NOT AVBL
LORAIN-ELYRIA  PTCLDY    55  51  86 N3        30.01F
ASHTABULA      MOCLDY    48  47  96 CALM      30.00S
AKRON-CANTON   CLOUDY    54  52  93 N3        30.00R FOG
WOOSTER        NOT AVBL
MANSFIELD      CLOUDY    50  50 100 CALM      30.01F FOG
YOUNGSTOWN     FOG       54  54 100 NW7       29.99S VSB 1/2
$$

OHZ042-051>053-060>062-070>072-077>081-010800-
  SOUTHWEST OHIO

CITY           SKY/WX    TMP DP  RH WIND       PRES   REMARKS
CINC-COVINGTON PTCLDY    53  47  79 E5        30.00R
CINC-LUNKEN    CLEAR     50  48  93 CALM      30.01S
HAMILTON       CLEAR     45  43  93 CALM      30.02S
DAYTON         NOT AVBL
WRIGHT-PAT AFB NOT AVBL
DAYTON GENERAL CLEAR     46  44  93 NE5       30.00S
WILMINGTON     CLEAR     45  43  93 NE7       30.00S
$$

OHZ036-037-039>041-045>050-054>059-063>069-073>076-082>088-010800-
  CENTRAL AND SOUTHEAST OHIO

CITY           SKY/WX    TMP DP  RH WIND       PRES   REMARKS
COLUMBUS       PTCLDY    49  48  97 N5        29.99S
OSU AIRPORT    MOCLDY    49  48  97 N5        30.00S FOG
BOLTON FIELD   NOT AVBL
RICKENBACK AFB NOT AVBL
NEWARK         PTCLDY    45  43  93 CALM      29.99S FOG
MARION         FOG       44  43  96 CALM      30.01F VSB 1/2
LANCASTER      FOG       46  43  89 CALM      29.99S VSB 1/4
ZANESVILLE     CLOUDY    53  51  93 N5        29.98F
NEW PHILLY     CLOUDY    55  54  96 NW3       30.00S
$$


USA.gov is the U.S. government's official web portal to all federal, state and local government web resources and services.